GW3329 Weather Reports


time (UTC)temp
C
wind
direction
speed
KPH
gust
KPH
rain 1hr
cm
rain 24hr
cm
rain mn
cm
humidity
%
barometer
mb
20260901052108 15 171 0.0 0.0 0.00 0.00 0.00 94 1018.0
20260901051607 15 164 0.0 0.0 0.00 0.00 0.00 94 1018.2
20260901051106 15 164 0.0 0.0 0.00 0.00 0.00 93 1018.0
20260901050601 15 164 0.0 0.0 0.00 0.00 0.00 93 1017.9
20260901050056 16 163 0.0 0.0 0.00 0.00 0.00 93 1018.1
20260901045552 16 176 0.0 0.0 0.00 0.00 0.00 93 1018.0
20260901045046 16 179 0.0 1.6 0.00 0.00 0.00 93 1018.1
20260901044542 16 256 1.6 1.6 0.00 0.00 0.00 93 1018.3
20260901044038 16 190 1.6 1.6 0.00 0.00 0.00 92 1018.1
20260901043533 16 173 0.0 0.0 0.00 0.00 0.00 92 1018.0
20260901043029 16 170 0.0 0.0 0.00 0.00 0.00 91 1018.0
20260901042528 16 179 0.0 0.0 0.00 0.00 0.00 91 1018.1
20260901042023 16 194 0.0 1.6 0.00 0.00 0.00 90 1017.9
20260901041513 16 183 1.6 1.6 0.00 0.00 0.00 90 1018.0
20260901041008 16 169 0.0 0.0 0.00 0.00 0.00 90 1017.9
20260901040502 16 173 0.0 0.0 0.00 0.00 0.00 89 1017.7
20260901040001 16 174 1.6 3.2 0.00 0.00 0.00 89 1017.5
20260901035459 16 164 0.0 0.0 0.00 0.00 0.00 89 1017.4
20260901034953 17 239 3.2 3.2 0.00 0.00 0.00 88 1017.6
20260901034452 17 182 1.6 1.6 0.00 0.00 0.00 88 1017.5
20260901033948 17 170 0.0 1.6 0.00 0.00 0.00 87 1017.4
20260901033446 17 193 1.6 1.6 0.00 0.00 0.00 87 1017.2
20260901032945 17 164 0.0 0.0 0.00 0.00 0.00 86 1017.3
20260901032440 17 177 0.0 0.0 0.00 0.00 0.00 86 1017.2
20260901031935 17 165 0.0 0.0 0.00 0.00 0.00 85 1017.3
20260901031431 17 176 0.0 0.0 0.00 0.00 0.00 85 1017.0
20260901030930 17 147 0.0 0.0 0.00 0.00 0.00 85 1017.4
20260901030426 17 184 0.0 1.6 0.00 0.00 0.00 84 1017.1
20260901025925 17 250 3.2 3.2 0.00 0.00 0.00 84 1017.0
20260901025420 17 164 0.0 1.6 0.00 0.00 0.00 83 1017.2
20260901024919 18 164 0.0 0.0 0.00 0.00 0.00 82 1017.0
20260901024414 18 160 0.0 0.0 0.00 0.00 0.00 82 1017.1
20260901023913 18 123 0.0 0.0 0.00 0.00 0.00 81 1016.9
20260901023407 18 174 0.0 0.0 0.00 0.00 0.00 80 1016.9
20260901022902 18 165 0.0 1.6 0.00 0.00 0.00 80 1016.9
20260901022359 19 24 0.0 1.6 0.00 0.00 0.00 79 1017.2
20260901021853 19 173 0.0 1.6 0.00 0.00 0.00 78 1017.1
20260901021349 20 62 1.6 3.2 0.00 0.00 0.00 78 1016.9
20260901020843 20 129 0.0 1.6 0.00 0.00 0.00 77 1016.7
20260901020338 20 145 0.0 3.2 0.00 0.00 0.00 75 1017.0
20260901015833 20 149 0.0 0.0 0.00 0.00 0.00 75 1017.0
20260901015329 20 178 0.0 1.6 0.00 0.00 0.00 74 1017.0
20260901014828 20 68 3.2 4.8 0.00 0.00 0.00 74 1016.9
20260901014325 20 120 0.0 4.8 0.00 0.00 0.00 73 1016.7
20260901013820 21 40 0.0 4.8 0.00 0.00 0.00 72 1016.8
20260901013315 21 151 0.0 3.2 0.00 0.00 0.00 71 1017.0
20260901012811 21 85 0.0 1.6 0.00 0.00 0.00 71 1017.0
20260901012310 22 126 0.0 1.6 0.00 0.00 0.00 70 1016.8
20260901011806 22 108 1.6 3.2 0.00 0.00 0.00 69 1016.9
20260901011302 22 146 0.0 4.8 0.00 0.00 0.00 68 1016.8
20260901010756 22 182 1.6 3.2 0.00 0.00 0.00 68 1016.8
20260901010250 23 180 0.0 9.7 0.00 0.00 0.00 67 1016.8
20260901005749 23 273 4.8 6.4 0.00 0.00 0.00 66 1016.7
20260901005244 23 232 3.2 6.4 0.00 0.00 0.00 66 1016.8
20260901004738 23 219 3.2 9.7 0.00 0.00 0.00 65 1016.9
20260901004233 24 115 1.6 4.8 0.00 0.00 0.00 64 1016.9
20260901003728 25 226 4.8 9.7 0.00 0.00 0.00 63 1016.9
20260901003227 25 168 1.6 3.2 0.00 0.00 0.00 63 1016.7
20260901002721 25 197 3.2 4.8 0.00 0.00 0.00 63 1016.7
20260901002216 25 335 1.6 3.2 0.00 0.00 0.00 62 1016.9
20260901001711 25 307 0.0 3.2 0.00 0.00 0.00 64 1016.6
20260901001206 25 260 3.2 9.7 0.00 0.00 0.00 63 1016.8
20260901000701 26 251 3.2 9.7 0.00 0.00 0.00 62 1016.9
20260901000157 26 163 1.6 4.8 0.00 0.00 0.00 61 1016.7
20260831235650 26 164 0.0 4.8 0.00 0.00 0.00 61 1016.6
20260831235146 26 129 3.2 3.2 0.00 0.00 0.00 62 1016.6
20260831234645 26 151 1.6 3.2 0.00 0.00 0.00 61 1016.8
20260831234141 26 147 3.2 6.4 0.00 0.00 0.00 61 1016.7
20260831233636 26 285 6.4 6.4 0.00 0.00 0.00 61 1016.5
20260831233132 26 283 8.0 9.7 0.00 0.00 0.00 60 1016.6
20260831232626 26 143 3.2 4.8 0.00 0.00 0.00 60 1016.6
20260831232123 26 46 1.6 9.7 0.00 0.00 0.00 60 1016.5
20260831231619 27 197 1.6 3.2 0.00 0.00 0.00 59 1016.4
20260831231114 27 202 4.8 11.3 0.00 0.00 0.00 59 1016.5
20260831230610 27 223 4.8 6.4 0.00 0.00 0.00 59 1016.6
20260831230109 27 110 0.0 3.2 0.00 0.00 0.00 61 1016.8
20260831225604 27 135 0.0 9.7 0.00 0.00 0.00 61 1016.4
20260831225104 27 159 1.6 3.2 0.00 0.00 0.00 59 1016.6
20260831224600 27 89 3.2 3.2 0.00 0.00 0.00 61 1016.8
20260831224055 27 62 3.2 4.8 0.00 0.00 0.00 61 1016.6
20260831223551 27 149 6.4 6.4 0.00 0.00 0.00 60 1016.7
20260831223047 27 283 1.6 6.4 0.00 0.00 0.00 61 1016.7
20260831222543 27 28 4.8 11.3 0.00 0.00 0.00 61 1016.7
20260831222042 27 38 3.2 4.8 0.00 0.00 0.00 60 1016.7
20260831221538 27 219 6.4 11.3 0.00 0.00 0.00 61 1016.9
20260831221033 28 344 4.8 9.7 0.00 0.00 0.00 59 1017.0
20260831220528 28 165 0.0 12.9 0.00 0.00 0.00 60 1016.8
20260831220024 27 269 1.6 4.8 0.00 0.00 0.00 61 1017.2
20260831215519 27 96 1.6 16.1 0.00 0.00 0.00 62 1017.1
20260831215015 27 163 4.8 9.7 0.00 0.00 0.00 60 1017.0
20260831214513 27 267 8.0 12.9 0.00 0.00 0.00 60 1017.1
20260831214008 27 109 1.6 4.8 0.00 0.00 0.00 61 1017.2
20260831213504 28 210 3.2 9.7 0.00 0.00 0.00 61 1017.2
20260831213004 28 272 8.0 11.3 0.00 0.00 0.00 60 1017.3
20260831212500 27 130 1.6 6.4 0.00 0.00 0.00 62 1017.3
20260831211955 27 84 1.6 3.2 0.00 0.00 0.00 63 1017.2
20260831211450 28 69 1.6 9.7 0.00 0.00 0.00 62 1017.2
20260831210949 28 234 6.4 9.7 0.00 0.00 0.00 61 1017.3
20260831210444 28 227 6.4 9.7 0.00 0.00 0.00 61 1017.1
20260831205940 27 278 9.7 11.3 0.00 0.00 0.00 61 1017.6
20260831205435 27 166 4.8 11.3 0.00 0.00 0.00 61 1017.2
20260831204930 27 180 3.2 6.4 0.00 0.00 0.00 61 1017.5
20260831204430 27 161 1.6 9.7 0.00 0.00 0.00 62 1017.2
20260831203923 27 318 3.2 4.8 0.00 0.00 0.00 63 1017.3
20260831203418 27 292 8.0 12.9 0.00 0.00 0.00 62 1017.7
20260831202916 27 95 3.2 6.4 0.00 0.00 0.00 62 1017.3
20260831202411 27 50 3.2 4.8 0.00 0.00 0.00 63 1017.4
20260831201906 27 31 1.6 6.4 0.00 0.00 0.00 63 1017.5
20260831201404 27 205 6.4 9.7 0.00 0.00 0.00 62 1017.3
20260831200901 27 181 3.2 4.8 0.00 0.00 0.00 63 1017.4
20260831200355 27 281 6.4 9.7 0.00 0.00 0.00 62 1017.6
20260831195849 27 203 1.6 4.8 0.00 0.00 0.00 63 1017.6
20260831195345 27 38 4.8 9.7 0.00 0.00 0.00 63 1017.5
20260831194841 27 197 3.2 6.4 0.00 0.00 0.00 64 1017.5
20260831194336 27 44 1.6 6.4 0.00 0.00 0.00 64 1017.8
20260831193835 27 208 3.2 6.4 0.00 0.00 0.00 63 1017.6
20260831193330 27 324 3.2 4.8 0.00 0.00 0.00 63 1017.7
20260831192826 27 265 8.0 14.5 0.00 0.00 0.00 63 1017.8
20260831192320 27 337 6.4 11.3 0.00 0.00 0.00 63 1017.8
20260831191816 27 260 3.2 6.4 0.00 0.00 0.00 63 1018.1
20260831191312 27 69 3.2 6.4 0.00 0.00 0.00 62 1017.9
20260831190808 27 261 8.0 12.9 0.00 0.00 0.00 62 1017.8
20260831190308 27 144 1.6 6.4 0.00 0.00 0.00 61 1018.0
20260831185807 27 256 6.4 12.9 0.00 0.00 0.00 61 1017.9
20260831185306 27 160 3.2 4.8 0.00 0.00 0.00 61 1018.0
20260831184802 27 146 3.2 6.4 0.00 0.00 0.00 60 1017.8
20260831184258 27 291 3.2 6.4 0.00 0.00 0.00 59 1018.0
20260831183753 27 82 1.6 3.2 0.00 0.00 0.00 60 1017.9
20260831183252 27 283 3.2 4.8 0.00 0.00 0.00 59 1018.1
20260831182751 27 223 3.2 3.2 0.00 0.00 0.00 59 1018.0
20260831182246 27 240 1.6 4.8 0.00 0.00 0.00 60 1017.8
20260831181742 27 240 6.4 9.7 0.00 0.00 0.00 60 1017.6
20260831181237 27 297 9.7 12.9 0.00 0.00 0.00 60 1017.8
20260831180737 26 230 6.4 12.9 0.00 0.00 0.00 60 1018.0
20260831180232 27 203 6.4 11.3 0.00 0.00 0.00 59 1017.9
20260831175731 27 282 3.2 6.4 0.00 0.00 0.00 59 1017.6
20260831175228 27 271 3.2 4.8 0.00 0.00 0.00 60 1017.7
20260831174722 27 142 1.6 4.8 0.00 0.00 0.00 59 1017.7
20260831174218 27 305 3.2 6.4 0.00 0.00 0.00 60 1017.8
20260831173717 27 0 1.6 1.6 0.00 0.00 0.00 61 1017.8
20260831173207 27 295 3.2 4.8 0.00 0.00 0.00 61 1017.8
20260831172706 27 219 3.2 6.4 0.00 0.00 0.00 61 1017.8
20260831172202 26 15 3.2 3.2 0.00 0.00 0.00 63 1017.8
20260831171656 26 180 3.2 4.8 0.00 0.00 0.00 64 1017.7
20260831171154 26 147 1.6 6.4 0.00 0.00 0.00 63 1017.7
20260831170650 26 271 4.8 6.4 0.00 0.00 0.00 64 1017.7
20260831170147 25 223 1.6 9.7 0.00 0.00 0.00 65 1017.7
20260831165642 25 191 1.6 4.8 0.00 0.00 0.00 65 1017.7
20260831165138 25 259 3.2 4.8 0.00 0.00 0.00 67 1017.5
20260831164634 25 241 1.6 3.2 0.00 0.00 0.00 67 1017.7
20260831164130 25 263 6.4 9.7 0.00 0.00 0.00 67 1017.6
20260831163625 25 43 1.6 1.6 0.00 0.00 0.00 69 1017.5
20260831163121 25 39 1.6 4.8 0.00 0.00 0.00 69 1017.5
20260831162620 24 225 3.2 4.8 0.00 0.00 0.00 69 1017.3
20260831162117 23 114 0.0 1.6 0.00 0.00 0.00 73 1017.4
20260831161614 23 226 3.2 6.4 0.00 0.00 0.00 71 1017.6
20260831161110 23 304 1.6 3.2 0.00 0.00 0.00 73 1017.5
20260831160609 23 134 0.0 1.6 0.00 0.00 0.00 73 1017.5
20260831160105 23 117 0.0 1.6 0.00 0.00 0.00 74 1017.6
20260831155559 23 143 1.6 1.6 0.00 0.00 0.00 75 1017.5
20260831155054 22 135 0.0 1.6 0.00 0.00 0.00 76 1017.4
20260831154550 22 81 1.6 4.8 0.00 0.00 0.00 76 1017.4
20260831154050 22 143 0.0 1.6 0.00 0.00 0.00 77 1017.5
20260831153544 22 129 0.0 1.6 0.00 0.00 0.00 77 1017.3
20260831153041 22 18 0.0 0.0 0.00 0.00 0.00 77 1017.4
20260831152536 21 147 0.0 0.0 0.00 0.00 0.00 79 1017.3
20260831152032 21 153 1.6 3.2 0.00 0.00 0.00 81 1017.3
20260831151531 21 141 0.0 0.0 0.00 0.00 0.00 80 1017.2
20260831151031 21 141 0.0 0.0 0.00 0.00 0.00 82 1017.2
20260831150520 20 141 0.0 0.0 0.00 0.00 0.00 83 1017.2
20260831150017 20 139 0.0 0.0 0.00 0.00 0.00 84 1017.2
20260831145511 20 140 0.0 0.0 0.00 0.00 0.00 85 1017.1
20260831145007 19 140 0.0 0.0 0.00 0.00 0.00 87 1017.4
20260831144503 19 136 0.0 0.0 0.00 0.00 0.00 89 1017.0
20260831143957 18 133 0.0 0.0 0.00 0.00 0.00 93 1017.2
20260831143446 18 131 0.0 0.0 0.00 0.00 0.00 97 1017.1
20260831142942 17 128 0.0 0.0 0.00 0.00 0.00 99 1017.0
20260831142438 17 132 0.0 0.0 0.00 0.00 0.00 99 1016.9
20260831141932 16 147 0.0 0.0 0.00 0.00 0.00 99 1017.0
20260831141426 16 145 0.0 0.0 0.00 0.00 0.00 99 1016.8
20260831140921 16 145 0.0 0.0 0.00 0.00 0.00 99 1016.8
20260831140416 15 151 0.0 0.0 0.00 0.00 0.00 99 1016.8
20260831135915 15 153 0.0 0.0 0.00 0.00 0.00 99 1016.5
20260831135414 15 154 0.0 0.0 0.00 0.00 0.00 99 1016.6
20260831134909 15 155 0.0 0.0 0.00 0.00 0.00 99 1016.5
20260831134401 15 154 0.0 0.0 0.00 0.00 0.00 99 1016.5
20260831133859 15 154 0.0 0.0 0.00 0.00 0.00 99 1016.4
20260831133354 14 154 0.0 0.0 0.00 0.00 0.00 99 1016.2
20260831132849 15 155 0.0 0.0 0.00 0.00 0.00 99 1016.5
20260831132339 15 162 0.0 0.0 0.00 0.00 0.00 99 1016.4
20260831131838 15 160 0.0 0.0 0.00 0.00 0.00 99 1016.4
20260831131334 15 160 0.0 0.0 0.00 0.00 0.00 99 1016.4
20260831130829 15 160 0.0 0.0 0.00 0.00 0.00 99 1016.5
20260831130325 15 168 0.0 0.0 0.00 0.00 0.00 99 1016.4
20260831125824 14 166 0.0 0.0 0.00 0.00 0.00 98 1016.5
20260831125320 14 157 0.0 0.0 0.00 0.00 0.00 98 1016.5
20260831124819 15 148 0.0 0.0 0.00 0.00 0.00 98 1016.3
20260831124316 15 148 0.0 0.0 0.00 0.00 0.00 98 1016.4
20260831123815 15 148 0.0 0.0 0.00 0.00 0.00 98 1016.4
20260831123314 15 147 0.0 0.0 0.00 0.00 0.00 98 1016.5
20260831122809 15 155 0.0 0.0 0.00 0.00 0.00 98 1016.5
20260831122306 15 164 0.0 0.0 0.00 0.00 0.00 98 1016.3
20260831121759 15 156 0.0 0.0 0.00 0.00 0.00 98 1016.4
20260831121255 15 160 0.0 0.0 0.00 0.00 0.00 98 1016.4
20260831120750 15 160 0.0 0.0 0.00 0.00 0.00 98 1016.3
20260831120245 15 161 0.0 0.0 0.00 0.00 0.00 98 1016.3
20260831115740 15 169 0.0 0.0 0.00 0.00 0.00 98 1016.1
20260831115236 15 165 0.0 0.0 0.00 0.00 0.00 98 1016.1
20260831114735 15 189 0.0 0.0 0.00 0.00 0.00 97 1016.1
20260831114235 15 173 0.0 0.0 0.00 0.00 0.00 97 1016.1
20260831113730 15 181 0.0 0.0 0.00 0.00 0.00 97 1016.5
20260831113224 15 162 0.0 0.0 0.00 0.00 0.00 97 1016.1
20260831112718 15 161 0.0 0.0 0.00 0.00 0.00 97 1016.4
20260831112214 15 153 0.0 0.0 0.00 0.00 0.00 97 1016.4
20260831111709 15 160 0.0 0.0 0.00 0.00 0.00 97 1016.3
20260831111206 15 158 0.0 0.0 0.00 0.00 0.00 97 1016.4
20260831110701 15 159 0.0 0.0 0.00 0.00 0.00 97 1016.4
20260831110156 15 158 0.0 0.0 0.00 0.00 0.00 96 1016.1
20260831105655 15 158 0.0 0.0 0.00 0.00 0.00 96 1016.5
20260831105151 16 158 0.0 0.0 0.00 0.00 0.00 96 1016.3
20260831104645 16 159 0.0 0.0 0.00 0.00 0.00 96 1016.4
20260831104142 16 166 0.0 0.0 0.00 0.00 0.00 96 1016.6
20260831103637 16 156 0.0 0.0 0.00 0.00 0.00 95 1016.4
20260831103133 16 156 0.0 0.0 0.00 0.00 0.00 95 1016.5
20260831102632 16 158 0.0 0.0 0.00 0.00 0.00 95 1016.5
20260831102132 16 138 0.0 0.0 0.00 0.00 0.00 95 1016.5
20260831101633 16 149 0.0 0.0 0.00 0.00 0.00 95 1016.4
20260831101128 16 175 0.0 0.0 0.00 0.00 0.00 95 1016.3
20260831100624 16 177 0.0 0.0 0.00 0.00 0.00 95 1016.1
20260831100120 16 218 0.0 0.0 0.00 0.00 0.00 95 1016.5
20260831095618 16 185 0.0 0.0 0.00 0.00 0.00 95 1016.2
20260831095113 16 179 0.0 0.0 0.00 0.00 0.00 95 1016.4
20260831094609 16 175 0.0 0.0 0.00 0.00 0.00 95 1016.3
20260831094105 16 159 0.0 0.0 0.00 0.00 0.00 94 1015.9
20260831093600 16 160 0.0 0.0 0.00 0.00 0.00 94 1016.1
20260831093056 16 171 0.0 0.0 0.00 0.00 0.00 94 1016.3
20260831092552 16 164 0.0 0.0 0.00 0.00 0.00 94 1016.1
20260831092048 16 179 0.0 0.0 0.00 0.00 0.00 94 1016.2
20260831091548 16 162 0.0 0.0 0.00 0.00 0.00 93 1016.1
20260831091043 16 179 0.0 0.0 0.00 0.00 0.00 93 1016.1
20260831090538 16 162 0.0 0.0 0.00 0.00 0.00 92 1016.1
20260831090029 17 177 0.0 0.0 0.00 0.00 0.00 92 1016.1
20260831085524 17 166 0.0 0.0 0.00 0.00 0.00 93 1016.0
20260831085019 17 173 0.0 0.0 0.00 0.00 0.00 93 1016.1
20260831084515 17 157 0.0 0.0 0.00 0.00 0.00 93 1016.0
20260831084011 17 163 0.0 0.0 0.00 0.00 0.00 93 1016.3
20260831083511 17 163 0.0 0.0 0.00 0.00 0.00 92 1016.3
20260831083006 17 166 0.0 0.0 0.00 0.00 0.00 92 1016.4
20260831082500 17 172 0.0 0.0 0.00 0.00 0.00 92 1016.4
20260831081954 17 161 0.0 0.0 0.00 0.00 0.00 92 1016.2
20260831081450 17 162 0.0 0.0 0.00 0.00 0.00 92 1016.2
20260831080946 17 166 0.0 0.0 0.00 0.00 0.00 92 1016.2
20260831080441 17 168 0.0 0.0 0.00 0.00 0.00 92 1016.4
20260831075936 17 172 0.0 0.0 0.00 0.00 0.00 91 1016.1
20260831075431 17 161 0.0 0.0 0.00 0.00 0.00 91 1016.3
20260831074927 17 168 0.0 0.0 0.00 0.00 0.00 90 1016.1
20260831074421 17 156 0.0 0.0 0.00 0.00 0.00 90 1016.2
20260831073915 17 168 0.0 0.0 0.00 0.00 0.00 91 1015.9
20260831073415 17 165 0.0 1.6 0.00 0.00 0.00 90 1016.1
20260831072910 17 153 0.0 3.2 0.00 0.00 0.00 90 1015.9
20260831072405 17 308 3.2 4.8 0.00 0.00 0.00 90 1016.0
20260831071902 18 262 3.2 4.8 0.00 0.00 0.00 89 1016.1
20260831071400 18 220 1.6 3.2 0.00 0.00 0.00 88 1016.0
20260831070855 18 146 0.0 0.0 0.00 0.00 0.00 86 1016.1
20260831070354 18 167 0.0 1.6 0.00 0.00 0.00 86 1016.0
20260831065854 18 151 0.0 0.0 0.00 0.00 0.00 85 1016.1
20260831065351 18 151 0.0 0.0 0.00 0.00 0.00 85 1015.9
20260831064847 18 182 0.0 1.6 0.00 0.00 0.00 84 1016.0
20260831064342 19 259 3.2 3.2 0.00 0.00 0.00 84 1016.1
20260831063837 19 171 0.0 1.6 0.00 0.00 0.00 84 1015.8
20260831063332 19 274 3.2 3.2 0.00 0.00 0.00 83 1016.1
20260831062827 19 188 0.0 0.0 0.00 0.00 0.00 84 1016.0
20260831062322 18 151 0.0 0.0 0.00 0.00 0.00 85 1015.9
20260831061820 18 147 0.0 0.0 0.00 0.00 0.00 85 1015.8
20260831061314 18 148 0.0 0.0 0.00 0.00 0.00 85 1016.2
20260831060810 18 148 0.0 0.0 0.00 0.00 0.00 85 1016.1
20260831060305 18 131 0.0 0.0 0.00 0.00 0.00 85 1015.9
20260831055804 18 142 0.0 0.0 0.00 0.00 0.00 84 1015.8
20260831055259 18 158 0.0 0.0 0.00 0.00 0.00 85 1016.0
20260831054754 18 157 0.0 0.0 0.00 0.00 0.00 85 1016.0
20260831054249 18 158 0.0 0.0 0.00 0.00 0.00 85 1016.2
20260831053748 18 159 0.0 0.0 0.00 0.00 0.00 85 1016.1
20260831053247 18 163 0.0 0.0 0.00 0.00 0.00 85 1016.1
20260831052742 18 155 0.0 0.0 0.00 0.00 0.00 85 1016.0